Theta_e
327 325 338 338 349 350 356 350 345 345 344 344 344 347 350 348 349 353 346 348 347 345 342 342 343 343 343 339 342 344 344 345 344 342 342 340 340 341 343 343 347 349 347 345 345 343 341 341 341
326 331 338 342 351 354 354 349 350 347 342 341 342 344 347 351 345 343 346 345 345 344 345 344 344 343 343 343 340 340 342 344 344 342 341 341 339 339 340 339 339 340 339 340 341 342 341 339 339
320 330 340 348 353 355 355 349 346 344 341 342 342 342 344 349 344 344 347 348 340 340 343 344 342 339 338 338 338 338 339 338 339 342 343 342 342 340 339 339 337 337 337 337 339 340 340 339 335
326 333 338 346 353 350 351 342 345 347 344 342 342 349 344 346 345 343 345 339 333 333 336 337 333 333 332 330 330 329 330 332 333 333 334 337 338 339 339 339 339 340 340 340 341 342 342 341 339
326 328 337 341 345 346 342 337 344 344 344 344 344 350 346 342 341 341 342 337 333 332 332 332 326 318 317 317 317 318 320 322 325 327 328 327 329 329 329 331 334 335 336 337 338 338 338 340 339
331 329 343 351 344 344 342 343 344 346 345 346 346 346 345 342 341 340 340 339 334 330 329 319 319 323 323 323 321 320 320 320 322 323 324 325 324 328 324 325 327 325 322 327 335 334 335 337 338
329 329 343 344 343 345 343 341 343 344 344 346 344 347 342 342 341 339 338 340 337 328 322 321 325 327 327 327 327 327 325 323 321 321 324 325 327 331 327 326 326 322 321 320 320 323 332 337 337
327 328 344 340 341 347 343 339 340 344 345 344 343 346 343 340 340 338 333 339 341 337 330 330 330 329 329 329 328 327 327 327 326 323 322 324 323 322 322 323 325 324 322 321 321 321 323 330 333
325 328 342 339 340 346 342 344 347 346 348 346 344 342 341 341 340 336 332 331 331 336 336 334 331 330 330 330 331 328 327 326 324 323 322 318 319 319 320 320 321 321 321 323 322 324 324 326 327
334 338 341 339 339 344 345 346 347 348 348 348 346 343 342 341 340 334 331 330 331 331 331 331 331 329 328 329 328 327 326 325 323 321 319 318 315 316 315 316 316 316 317 317 319 320 322 323 322
336 340 339 338 336 339 344 343 338 347 348 347 347 345 342 340 339 336 331 331 332 332 332 332 331 329 329 329 328 327 324 323 322 319 317 316 314 315 313 313 313 314 315 316 317 317 318 320 319
337 337 336 337 337 341 344 342 341 344 346 344 344 343 342 341 339 332 331 332 332 332 332 332 331 331 330 328 327 326 324 320 318 316 315 315 313 313 312 312 313 315 315 314 316 316 317 317 317
336 338 337 335 335 337 342 345 344 343 342 342 342 342 336 336 331 331 330 331 332 332 332 332 331 331 330 328 327 325 322 318 316 315 314 313 311 310 309 311 312 312 312 312 312 313 312 312 314
334 335 335 335 336 341 344 343 343 342 341 341 340 337 331 331 333 334 334 333 332 332 332 331 330 329 328 324 323 323 319 316 315 314 312 311 309 309 308 309 311 309 309 309 309 310 309 309 310
337 335 337 339 338 340 340 345 346 342 341 340 340 332 330 332 333 334 334 334 333 332 330 329 326 324 323 321 319 318 316 315 314 312 312 310 308 308 307 308 307 306 307 308 309 309 309 309 310
336 339 343 340 337 339 338 346 344 341 341 340 337 333 331 331 334 334 335 335 334 332 331 328 325 322 321 318 316 316 316 314 313 312 311 308 307 306 306 306 305 306 307 307 308 308 308 308 309
338 346 346 346 339 338 341 349 344 341 340 339 335 333 333 332 334 334 335 334 333 330 327 325 322 319 318 315 315 315 314 314 313 312 309 307 306 305 305 305 307 308 308 308 308 309 308 308 309
342 345 343 344 339 340 341 341 344 342 339 336 334 333 333 334 334 335 334 333 331 328 326 325 321 316 317 315 315 314 314 313 311 309 307 307 306 306 305 306 307 308 308 309 308 309 308 308 309
337 340 341 341 341 341 342 339 343 343 341 337 335 334 334 334 335 334 333 331 329 328 325 322 319 315 317 315 314 314 315 312 310 308 307 307 306 306 305 306 307 308 308 308 308 309 309 308 308
333 333 337 341 341 341 341 341 343 344 342 340 337 336 336 335 335 334 332 330 328 326 323 320 317 314 315 316 314 314 314 311 310 308 307 307 306 306 307 307 308 308 308 308 308 309 308 307 309
332 332 333 340 341 342 343 344 343 346 344 342 341 338 337 336 335 333 333 330 328 324 321 319 317 315 314 315 314 313 312 310 309 308 308 307 307 307 308 308 308 308 308 308 308 309 308 309 308
328 332 333 333 334 351 344 335 336 348 347 344 343 340 338 338 335 333 332 330 326 323 320 318 316 316 314 313 312 311 311 310 309 309 309 309 308 307 309 309 309 309 309 308 308 308 309 308 308
327 327 328 327 327 328 334 332 340 349 349 348 344 340 337 338 336 334 331 329 325 323 320 317 316 315 315 313 311 311 310 310 311 311 311 310 310 309 310 310 310 308 309 309 308 309 308 309 308
324 324 324 325 325 325 342 340 343 348 350 348 347 340 338 338 336 333 331 329 326 322 318 317 315 315 315 313 312 312 311 311 311 312 310 311 311 310 311 309 309 309 308 309 309 308 308 308 308
324 321 323 324 326 329 341 345 353 347 347 346 342 343 339 337 336 333 331 329 325 319 318 316 316 315 315 313 312 311 311 311 312 312 312 311 311 311 311 309 310 309 309 308 307 309 308 308 308
322 322 323 330 345 342 337 347 356 344 342 342 345 342 339 337 333 332 330 328 321 318 317 316 316 315 314 313 312 310 311 311 312 311 312 311 311 311 309 309 309 309 309 308 308 307 308 307 307
322 323 324 325 326 337 348 355 347 344 344 344 343 342 340 337 333 331 329 325 318 316 316 316 316 315 314 313 312 311 310 311 312 311 310 310 310 310 310 310 309 309 307 308 307 307 307 308 307
322 328 330 333 337 339 338 349 354 346 346 346 345 342 340 336 333 332 324 320 317 316 315 315 315 315 313 312 312 311 311 311 312 310 311 309 309 309 309 309 308 307 305 307 307 306 307 307 307
322 323 328 334 335 336 342 351 344 344 344 349 345 342 339 337 334 326 322 317 316 315 315 315 315 314 313 313 312 312 311 311 312 311 311 309 308 308 308 308 306 306 304 302 305 308 306 306 307
324 328 331 336 337 342 342 342 337 342 343 344 345 340 337 333 328 324 321 318 316 315 314 315 315 314 313 313 312 312 311 311 312 309 308 308 308 309 309 309 308 305 304 301 302 306 307 305 306
Wind_Speed
5 6 8 14 7 6 5 7 11 14 22 23 20 20 19 13 7 11 16 27 13 18 20 18 17 18 19 20 20 18 17 15 13 12 11 9 7 7 7 6 7 5 3 3 1 2 3 4 6
2 2 3 3 5 3 5 3 18 13 16 11 22 19 17 18 14 12 12 15 15 21 21 19 17 17 18 18 18 18 17 16 15 13 12 12 9 5 4 2 2 1 1 2 4 3 9 8 6
5 4 3 4 4 2 5 6 16 14 19 5 5 10 8 12 12 10 33 28 21 22 21 21 20 21 21 21 20 19 16 15 14 13 12 10 9 7 3 2 4 4 6 5 6 7 9 9 12
1 0 3 5 7 8 8 5 14 14 10 12 16 10 8 15 6 18 33 26 26 23 22 21 21 23 24 24 24 24 23 22 21 18 13 10 8 7 6 4 3 4 6 7 7 7 9 12 15
4 3 2 2 8 3 6 11 15 16 13 17 13 13 13 19 14 25 29 28 29 24 25 24 26 27 27 25 25 25 24 23 21 19 18 17 15 13 11 8 8 8 10 11 10 8 10 10 14
2 2 8 6 20 9 6 10 15 11 16 19 21 17 9 18 13 18 29 29 29 27 28 27 27 26 25 23 22 21 21 20 18 17 19 16 12 13 15 14 12 13 15 13 12 14 14 14 16
5 2 7 10 8 17 9 14 17 10 13 14 16 13 6 15 17 14 28 31 28 28 28 25 23 22 22 20 21 20 18 17 15 13 16 18 10 15 15 14 12 17 18 16 15 14 15 17 19
5 3 9 5 6 7 9 6 6 14 14 20 17 6 9 12 19 28 35 31 22 23 23 20 18 17 18 18 18 18 16 14 16 16 17 14 13 17 16 17 16 21 18 16 16 16 16 16 16
6 4 3 6 9 12 12 13 19 14 16 8 11 19 18 27 21 26 28 31 33 26 18 12 10 13 16 14 13 15 18 17 16 17 18 20 16 20 18 16 18 16 18 18 20 23 20 15 18
3 4 9 1 14 18 18 18 13 10 15 17 17 16 21 26 25 23 22 22 27 23 18 16 14 15 15 17 14 16 14 17 15 16 18 19 17 21 20 16 15 16 20 20 19 19 15 17 15
4 6 11 12 11 15 11 12 3 17 12 16 18 17 18 19 24 21 21 26 26 19 17 15 12 14 16 15 12 10 15 12 13 14 17 19 17 21 21 20 19 22 23 20 20 19 19 18 19
4 6 10 9 9 16 10 11 6 6 12 19 18 19 22 15 13 18 22 27 28 25 22 15 11 10 10 11 10 8 10 13 13 16 18 21 19 21 21 19 21 23 20 21 25 24 23 22 23
6 5 8 10 12 12 14 12 8 11 15 17 17 15 12 13 15 24 25 28 28 25 19 13 13 11 10 11 10 6 10 11 12 13 16 19 19 22 22 17 25 22 21 22 23 25 27 29 28
10 11 8 10 7 15 17 11 8 9 12 12 11 8 13 17 23 26 28 27 27 24 17 14 12 9 7 10 11 7 12 11 11 14 17 20 23 22 19 19 18 23 22 20 22 23 27 27 27
5 6 12 11 8 5 12 8 10 11 13 10 10 13 14 16 23 22 26 23 17 15 18 18 17 14 10 11 12 11 11 12 12 14 17 21 22 20 19 20 21 21 19 20 21 22 23 24 25
6 7 5 6 8 6 11 7 12 13 14 12 10 14 13 11 22 27 26 22 19 15 10 9 10 12 13 12 12 12 11 13 10 12 16 21 21 22 18 17 19 17 19 18 19 21 22 22 24
10 5 6 9 2 8 3 3 10 12 14 12 10 14 14 11 21 27 28 25 22 19 16 12 12 12 12 11 13 13 13 11 9 13 18 20 21 22 22 17 18 18 18 17 18 20 21 23 24
5 5 5 5 11 5 15 16 7 13 15 15 13 14 14 16 14 25 30 28 24 18 13 9 12 11 12 8 10 13 13 13 14 16 19 19 20 19 20 18 18 18 18 17 19 20 22 21 23
11 10 10 7 13 2 12 20 11 19 13 15 15 15 15 16 23 29 29 28 25 18 14 11 11 10 12 12 9 10 12 16 16 17 18 19 16 20 19 18 18 19 19 18 20 19 22 23 21
8 6 10 15 13 12 21 21 14 21 24 19 18 17 17 17 17 23 26 26 23 21 18 13 11 12 10 10 10 9 11 18 14 16 17 15 14 14 19 20 21 21 21 17 22 17 19 19 19
10 8 10 12 18 13 5 15 17 22 11 6 9 11 21 23 20 18 23 24 25 22 20 16 12 12 12 11 8 13 11 12 16 11 11 10 12 14 13 17 18 20 20 20 21 18 20 15 19
13 9 12 12 6 9 19 6 3 19 17 11 9 17 19 19 17 15 23 22 25 23 19 16 14 11 9 9 13 13 13 8 9 6 8 10 13 13 11 16 19 17 20 20 22 19 17 17 17
15 11 4 5 5 4 10 5 7 18 10 13 11 19 20 19 19 17 23 24 26 25 21 18 15 11 9 10 10 10 8 7 8 9 10 12 12 16 11 18 19 20 18 21 21 21 19 16 17
5 7 7 6 2 2 5 6 4 1 7 5 5 18 18 20 18 20 24 24 25 26 23 19 17 11 12 10 11 6 6 4 7 11 13 13 14 15 15 19 18 19 20 19 20 19 18 16 16
3 5 4 6 3 6 9 4 7 11 19 14 16 11 18 18 18 18 18 21 24 28 25 21 18 13 14 10 8 6 6 6 8 11 12 13 15 19 16 20 19 19 19 21 21 16 18 19 15
8 7 5 7 4 5 2 6 4 6 18 21 14 17 16 15 15 15 20 20 26 29 27 21 18 17 14 10 8 6 6 7 8 10 12 12 14 15 16 17 19 18 18 20 20 19 16 17 16
7 9 9 4 8 2 5 5 5 10 12 17 22 15 17 16 15 14 20 19 28 27 24 22 19 18 13 10 6 4 4 7 8 9 11 13 14 15 15 17 18 18 19 20 20 17 20 16 17
10 5 3 2 5 6 4 4 5 4 4 12 11 18 16 17 16 16 17 24 27 22 21 18 16 19 15 11 9 4 4 5 6 9 11 13 14 15 16 14 16 17 21 20 21 20 20 20 19
3 8 5 2 5 5 0 2 7 11 5 4 12 15 19 19 15 15 20 26 29 22 19 19 16 20 16 10 8 5 3 6 6 8 10 11 13 13 14 14 15 16 21 22 19 19 20 19 20
10 9 7 4 7 3 3 6 6 10 22 15 18 21 19 15 16 15 21 24 26 25 20 15 16 21 16 12 7 5 3 4 6 6 9 10 12 13 15 14 14 15 20 23 21 18 18 19 19
Wind_Direction
239 327 9 22 54 71 294 298 38 75 74 82 78 75 72 59 67 122 111 99 90 80 76 70 68 70 69 68 70 69 70 69 66 58 49 55 46 68 73 73 76 67 95 125 121 316 290 286 324
198 336 68 92 64 42 298 284 66 57 39 67 85 89 70 86 87 102 91 123 92 89 81 79 77 75 73 74 76 78 76 73 71 69 62 53 57 85 94 95 106 151 184 209 204 249 269 247 288
228 194 87 74 111 255 238 217 106 112 101 277 63 35 71 84 81 111 118 119 106 95 89 87 84 80 78 76 74 71 68 66 65 68 67 67 65 69 66 337 312 291 284 265 266 259 262 254 241
232 192 45 123 164 237 209 216 129 122 127 149 121 61 47 91 81 128 124 109 96 99 96 92 88 85 80 77 75 72 68 66 65 64 57 46 48 43 42 15 325 292 286 279 256 248 251 238 230
262 300 278 236 207 157 205 138 108 108 111 101 107 101 95 87 93 102 120 108 100 104 101 98 93 87 82 79 76 75 73 69 63 57 51 50 44 35 31 17 352 325 302 291 293 274 254 252 250
271 156 37 333 296 127 181 108 103 140 116 112 106 110 107 116 114 113 132 116 106 111 108 104 97 87 78 70 65 64 64 63 59 54 45 30 41 25 15 9 7 358 344 326 308 285 279 273 264
228 93 72 254 271 130 160 137 143 140 137 116 126 108 126 141 141 106 118 122 111 114 110 107 99 86 73 69 60 53 52 50 44 42 37 40 43 14 5 360 350 340 337 330 324 315 295 276 267
213 105 144 215 186 120 124 97 131 128 123 128 134 133 143 133 125 101 98 110 116 111 111 109 104 90 80 75 72 66 57 37 10 14 11 10 10 14 10 14 357 345 334 328 330 327 315 300 290
265 208 312 236 141 120 105 97 72 75 79 84 93 131 144 134 132 114 109 109 104 112 110 113 112 130 80 77 74 62 50 32 21 17 9 4 5 11 2 360 1 2 2 337 330 326 310 314 309
114 124 182 332 123 126 128 111 111 102 95 96 108 116 135 145 145 133 131 123 106 97 90 83 80 84 83 87 73 54 40 39 29 8 14 8 10 5 352 346 348 360 357 349 342 328 334 321 330
248 91 17 312 133 109 117 112 88 122 135 142 142 154 163 160 161 150 147 128 121 117 104 88 78 79 76 69 53 45 49 33 30 28 22 15 20 4 1 359 4 4 353 354 356 349 344 342 341
102 175 202 135 113 113 124 137 85 132 154 148 158 176 170 170 159 132 125 119 124 124 115 102 76 54 50 50 41 22 33 42 41 32 26 16 16 5 2 1 6 357 358 355 359 349 338 333 330
103 283 205 109 98 108 120 114 118 116 130 147 170 183 140 141 104 102 113 115 113 112 112 105 98 79 53 38 41 41 51 55 52 39 32 23 13 2 353 2 6 2 360 5 359 354 347 336 327
215 149 148 99 104 104 108 122 114 136 129 143 156 158 116 109 105 96 91 87 90 91 106 106 86 77 63 53 33 74 63 66 48 44 36 21 9 360 7 13 9 357 354 353 358 356 351 343 339
155 119 77 37 18 113 127 131 146 143 141 157 182 130 116 117 112 109 108 103 104 94 90 92 78 67 51 46 41 76 73 64 52 50 29 16 13 7 1 13 7 6 8 4 358 353 348 341 336
81 57 22 320 42 349 8 191 154 156 157 176 162 136 128 122 116 112 112 115 114 111 91 80 75 75 48 48 49 71 73 58 67 46 28 22 14 8 10 6 3 10 7 2 355 350 343 342 336
13 106 50 339 273 19 77 239 179 173 170 174 167 151 146 130 128 127 127 121 112 105 92 77 61 68 52 57 60 71 68 74 69 38 28 26 21 21 16 16 19 10 2 359 354 348 349 343 340
152 126 66 315 266 306 274 250 220 188 183 177 170 158 154 140 142 133 124 125 120 105 93 73 55 68 55 57 70 63 70 82 54 54 41 31 20 14 17 16 15 8 2 358 355 348 349 348 343
168 130 173 184 255 332 242 246 245 195 200 183 177 169 159 147 130 127 123 126 122 123 112 80 57 57 67 55 59 64 64 82 76 54 33 29 27 13 13 15 9 4 5 2 348 348 346 345 355
264 260 216 170 200 189 259 243 221 194 204 188 180 175 152 143 136 132 128 128 126 126 119 100 79 60 70 76 51 27 100 78 66 39 27 27 22 11 14 15 10 5 359 352 1 359 348 345 351
247 231 262 179 208 209 320 258 208 199 200 228 185 169 155 154 144 140 132 134 137 131 122 110 103 78 74 75 66 67 72 46 28 17 15 14 3 12 5 4 1 357 359 354 352 352 356 338 349
269 234 234 260 155 205 207 260 253 169 179 202 246 155 156 148 142 142 140 140 136 133 126 114 110 95 75 74 71 67 56 68 31 5 0 3 12 9 2 355 359 357 354 359 358 353 347 352 338
253 260 235 282 268 28 352 50 336 141 191 191 204 163 158 148 148 145 142 143 145 143 134 124 111 101 104 93 66 70 55 43 24 9 23 12 3 13 7 4 358 358 353 350 354 357 357 344 346
338 336 348 305 200 325 146 120 252 246 200 212 189 176 152 142 143 140 147 151 153 147 137 129 117 118 128 99 86 87 82 47 27 26 15 13 5 9 9 3 2 4 356 354 356 355 358 354 346
356 17 336 305 339 227 187 96 45 346 345 327 285 264 144 148 142 143 152 164 155 144 142 136 127 135 135 107 86 75 79 50 47 25 17 12 9 16 12 13 9 3 2 2 3 3 358 359 353
214 192 201 246 209 240 234 162 178 56 321 295 270 233 140 136 134 146 162 169 137 146 143 141 143 142 130 118 102 77 49 47 34 34 28 24 20 16 12 16 10 12 10 8 8 8 1 359 3
252 237 212 254 279 327 121 88 200 232 245 278 167 166 138 142 153 166 175 142 129 128 142 141 136 143 128 126 118 108 55 32 31 37 41 38 23 16 8 11 13 12 10 10 6 6 1 2 4
195 220 260 271 250 264 195 131 185 238 199 99 159 151 150 156 167 176 133 124 124 129 136 139 143 143 135 130 125 103 70 38 28 31 30 20 22 14 10 12 14 16 12 8 6 7 6 5 5
231 248 249 190 149 209 205 223 207 176 193 190 220 171 159 167 164 125 123 125 134 138 135 142 147 149 137 135 130 122 72 46 42 35 31 18 19 21 18 24 24 21 9 6 3 7 4 2 6
185 207 193 130 281 116 125 256 212 170 187 193 166 164 164 160 140 130 132 139 143 146 154 163 151 146 140 141 141 133 92 63 52 43 29 25 21 13 14 12 20 13 5 5 8 5 3 6 2